Location: *
(50.9167°S, 179.4000°W)
Time: 19:17:41
(UTC+00:00)

Cosmos 1763 Rocket - Pass Details

Date: 03 March 2024
Orbit: 731 x 777 km, 74.0° (Epoch: 16 April)

Event Time Altitude Azimuth Distance (km) Brightness Sun altitude
Rises 14:55:31 0° 203° (SSW) 3,304 7.1 -22.4°
Reaches altitude 10° 14:58:00 10° 198° (SSW) 2,369 6.3 -22.1°
Maximum altitude 15:03:17 53° 120° (ESE) 966 4.3 -21.5°
Drops below altitude 10° 15:08:28 10° 43° (NE) 2,326 6.0 -20.9°
Sets 15:10:53 0° 38° (NE) 3,240 6.7 -20.6°
